AEE624 LGAV-EHAM

Flight info

Callsign AEE624
Flight time N/A
Altitude 34000
Route KOR UL53 ELVAS DCT TUMBO DCT TAZ DCT KUSIB DCT PODET DCT RENKA DCT GASKA DCT MAPOX DCT HMM DCT NORKU
Aircraft A321/M-SDE3FGHIRWY/LB1

Departure

Time N/A
Airport Athens Eleftherios Venizelos International Airport (LGAV)

Arrival

Time 2026-05-04 14:38
Airport Amsterdam Airport Schiphol (EHAM)
Time Latitude Longitude Altitude Speed Heading
2026-05-04 14:34 52.13947 4.82876 3000 ft 202 kts 266°
2026-05-04 14:34 52.13810 4.80571 3002 ft 205 kts 265°
2026-05-04 14:34 52.13698 4.78273 2993 ft 203 kts 274°
2026-05-04 14:35 52.14180 4.76187 2996 ft 199 kts 309°
2026-05-04 14:35 52.15330 4.74986 3003 ft 201 kts 344°
2026-05-04 14:35 52.16725 4.75130 3006 ft 204 kts 19°
2026-05-04 14:35 52.17998 4.76114 3013 ft 206 kts 19°
2026-05-04 14:36 52.19368 4.76675 2967 ft 197 kts
2026-05-04 14:36 52.20689 4.77032 2800 ft 184 kts
2026-05-04 14:36 52.21870 4.77279 2498 ft 166 kts
2026-05-04 14:36 52.23023 4.77452 1997 ft 163 kts
2026-05-04 14:37 52.24110 4.77594 1603 ft 154 kts
2026-05-04 14:37 52.25167 4.77623 1208 ft 146 kts 360°
2026-05-04 14:37 52.26169 4.77650 790 ft 144 kts 360°
2026-05-04 14:37 52.27181 4.77685 484 ft 143 kts
2026-05-04 14:38 52.28173 4.77708 209 ft 141 kts
2026-05-04 14:38 52.29132 4.77773 25 ft 135 kts
2026-05-04 14:38 52.29970 4.77846 4 ft 92 kts
2026-05-04 14:38 52.30375 4.77875 4 ft 33 kts 346°
2026-05-04 14:39 52.30480 4.77799 4 ft 10 kts 333°
2026-05-04 14:39 52.30536 4.77753 4 ft 3 kts 333°
2026-05-04 14:39 52.30555 4.77738 4 ft 3 kts 333°
2026-05-04 14:40 52.30587 4.77712 4 ft 2 kts 333°
2026-05-04 14:40 52.30600 4.77701 4 ft 2 kts 333°
2026-05-04 14:40 52.30636 4.77628 4 ft 13 kts 278°
2026-05-04 14:40 52.30644 4.77465 4 ft 17 kts 273°
2026-05-04 14:41 52.30651 4.77259 4 ft 19 kts 273°
2026-05-04 14:41 52.30660 4.77030 4 ft 21 kts 273°
2026-05-04 14:41 52.30723 4.76914 4 ft 5 kts 54°
2026-05-04 14:42 52.30737 4.76939 4 ft 0 kts 45°